Time,TemperatureF,DewpointF,PressureIn,WindDirection,WindDirectionDegrees,WindSpeedMPH,WindSpeedGustMPH,Humidity,HourlyPrecipIn,Conditions,Clouds,dailyrainin,SoftwareType,DateUTC
2013-04-23 00:03:00,48.0,36.0,30.31,SSW,202,0.0,1.0,62,0.00,,,0.00,,2013-04-23 04:03:00,
2013-04-23 00:12:00,48.0,36.0,30.31,SSW,202,0.0,1.0,62,0.00,,,0.00,,2013-04-23 04:12:00,
2013-04-23 00:23:00,47.0,35.0,30.31,SSW,195,0.0,1.0,64,0.00,,,0.00,,2013-04-23 04:23:00,
2013-04-23 00:33:00,47.0,36.0,30.31,South,172,1.0,5.0,65,0.00,,,0.00,,2013-04-23 04:33:00,
2013-04-23 00:43:00,47.0,36.0,30.31,South,172,1.0,5.0,65,0.00,,,0.00,,2013-04-23 04:43:00,
2013-04-23 00:53:00,46.0,35.0,30.31,NW,324,0.0,3.0,65,0.00,,,0.00,,2013-04-23 04:53:00,
2013-04-23 01:02:00,46.0,35.0,30.31,NW,324,0.0,0.0,65,0.00,,,0.00,,2013-04-23 05:02:00,
2013-04-23 01:12:00,46.0,35.0,30.31,NW,324,0.0,0.0,65,0.00,,,0.00,,2013-04-23 05:12:00,
2013-04-23 01:22:00,46.0,35.0,30.31,NW,324,0.0,1.0,66,0.00,,,0.00,,2013-04-23 05:22:00,
2013-04-23 01:32:00,45.0,34.0,30.31,West,259,0.0,2.0,65,0.00,,,0.00,,2013-04-23 05:32:00,
2013-04-23 01:42:00,45.0,34.0,30.31,West,259,0.0,2.0,65,0.00,,,0.00,,2013-04-23 05:42:00,
2013-04-23 01:52:00,45.0,34.0,30.31,West,259,0.0,1.0,65,0.00,,,0.00,,2013-04-23 05:52:00,
2013-04-23 02:02:00,45.0,34.0,30.31,West,259,0.0,2.0,65,0.00,,,0.00,,2013-04-23 06:02:00,
2013-04-23 02:12:00,45.0,34.0,30.31,West,259,0.0,2.0,65,0.00,,,0.00,,2013-04-23 06:12:00,
2013-04-23 02:22:00,44.0,32.0,30.31,West,259,0.0,2.0,63,0.00,,,0.00,,2013-04-23 06:22:00,
2013-04-23 02:33:00,44.0,31.0,30.30,West,259,0.0,1.0,61,0.00,,,0.00,,2013-04-23 06:33:00,
2013-04-23 02:42:00,44.0,31.0,30.30,West,259,0.0,1.0,61,0.00,,,0.00,,2013-04-23 06:42:00,
2013-04-23 02:52:00,44.0,31.0,30.30,West,259,0.0,2.0,61,0.00,,,0.00,,2013-04-23 06:52:00,
2013-04-23 03:02:00,43.0,31.0,30.29,West,259,0.0,1.0,62,0.00,,,0.00,,2013-04-23 07:02:00,
2013-04-23 03:11:00,43.0,31.0,30.29,West,259,0.0,1.0,62,0.00,,,0.00,,2013-04-23 07:11:00,
2013-04-23 03:22:00,43.0,31.0,30.30,West,259,0.0,2.0,62,0.00,,,0.00,,2013-04-23 07:22:00,
2013-04-23 03:32:00,43.0,30.0,30.29,West,259,0.0,2.0,61,0.00,,,0.00,,2013-04-23 07:32:00,
2013-04-23 03:42:00,43.0,30.0,30.29,West,259,0.0,2.0,61,0.00,,,0.00,,2013-04-23 07:42:00,
2013-04-23 03:52:00,43.0,30.0,30.29,West,259,0.0,1.0,61,0.00,,,0.00,,2013-04-23 07:52:00,
2013-04-23 04:02:00,42.0,30.0,30.29,West,259,0.0,1.0,62,0.00,,,0.00,,2013-04-23 08:02:00,
2013-04-23 04:11:00,42.0,30.0,30.29,West,259,0.0,1.0,62,0.00,,,0.00,,2013-04-23 08:11:00,
2013-04-23 04:21:00,42.0,29.0,30.29,West,275,0.0,2.0,59,0.00,,,0.00,,2013-04-23 08:21:00,
2013-04-23 04:32:00,42.0,28.0,30.28,West,275,0.0,1.0,57,0.00,,,0.00,,2013-04-23 08:32:00,
2013-04-23 04:42:00,42.0,28.0,30.28,West,275,0.0,1.0,57,0.00,,,0.00,,2013-04-23 08:42:00,
2013-04-23 04:52:00,42.0,27.0,30.28,West,281,1.0,4.0,56,0.00,,,0.00,,2013-04-23 08:52:00,
2013-04-23 05:02:00,42.0,31.0,30.28,SW,218,0.0,1.0,64,0.00,,,0.00,,2013-04-23 09:02:00,
2013-04-23 05:11:00,42.0,31.0,30.28,SW,218,0.0,1.0,64,0.00,,,0.00,,2013-04-23 09:11:00,
2013-04-23 05:21:00,41.0,29.0,30.29,SW,218,0.0,0.0,61,0.00,,,0.00,,2013-04-23 09:21:00,
2013-04-23 05:33:00,40.0,28.0,30.28,SW,218,0.0,1.0,62,0.00,,,0.00,,2013-04-23 09:33:00,
2013-04-23 05:43:00,40.0,28.0,30.28,SW,218,0.0,1.0,62,0.00,,,0.00,,2013-04-23 09:43:00,
2013-04-23 05:52:00,40.0,29.0,30.28,SW,218,0.0,0.0,65,0.00,,,0.00,,2013-04-23 09:52:00,
2013-04-23 06:03:00,39.0,29.0,30.28,SW,218,0.0,0.0,66,0.00,,,0.00,,2013-04-23 10:03:00,
2013-04-23 06:13:00,39.0,29.0,30.28,SW,218,0.0,0.0,66,0.00,,,0.00,,2013-04-23 10:13:00,
2013-04-23 06:23:00,39.0,29.0,30.27,SW,218,0.0,0.0,67,0.00,,,0.00,,2013-04-23 10:23:00,
2013-04-23 06:33:00,38.0,28.0,30.27,SW,218,0.0,0.0,68,0.00,,,0.00,,2013-04-23 10:33:00,
2013-04-23 06:42:00,38.0,28.0,30.27,SW,218,0.0,0.0,68,0.00,,,0.00,,2013-04-23 10:42:00,
2013-04-23 06:52:00,38.0,29.0,30.28,SW,218,0.0,0.0,71,0.00,,,0.00,,2013-04-23 10:52:00,
2013-04-23 07:03:00,38.0,31.0,30.27,SW,218,0.0,0.0,76,0.00,,,0.00,,2013-04-23 11:03:00,
2013-04-23 07:12:00,38.0,31.0,30.27,SW,218,0.0,0.0,76,0.00,,,0.00,,2013-04-23 11:12:00,
2013-04-23 07:21:00,38.0,30.0,30.27,SW,218,0.0,0.0,73,0.00,,,0.00,,2013-04-23 11:21:00,
2013-04-23 07:32:00,38.0,30.0,30.26,SW,218,0.0,0.0,73,0.00,,,0.00,,2013-04-23 11:32:00,
2013-04-23 07:43:00,38.0,30.0,30.26,SW,218,0.0,0.0,73,0.00,,,0.00,,2013-04-23 11:43:00,
2013-04-23 07:52:00,38.0,30.0,30.27,SW,218,0.0,0.0,73,0.00,,,0.00,,2013-04-23 11:52:00,
2013-04-23 08:02:00,38.0,31.0,30.28,West,264,0.0,1.0,77,0.00,,,0.00,,2013-04-23 12:02:00,
2013-04-23 08:12:00,38.0,31.0,30.28,West,264,0.0,1.0,77,0.00,,,0.00,,2013-04-23 12:12:00,
2013-04-23 08:22:00,39.0,31.0,30.30,West,264,0.0,1.0,74,0.00,,,0.00,,2013-04-23 12:22:00,
2013-04-23 08:32:00,39.0,32.0,30.29,West,265,0.0,0.0,76,0.00,,,0.00,,2013-04-23 12:32:00,
2013-04-23 08:42:00,39.0,32.0,30.29,West,265,0.0,0.0,76,0.00,,,0.00,,2013-04-23 12:42:00,
2013-04-23 08:52:00,40.0,32.0,30.30,WNW,286,0.0,1.0,74,0.00,,,0.00,,2013-04-23 12:52:00,
2013-04-23 09:01:00,41.0,33.0,30.29,NNE,33,1.0,3.0,72,0.00,,,0.00,,2013-04-23 13:01:00,
2013-04-23 09:11:00,41.0,33.0,30.29,NNE,33,1.0,3.0,72,0.00,,,0.00,,2013-04-23 13:11:00,
2013-04-23 09:22:00,42.0,33.0,30.29,ENE,58,0.0,2.0,69,0.00,,,0.00,,2013-04-23 13:22:00,
2013-04-23 09:32:00,44.0,34.0,30.29,ENE,60,1.0,2.0,67,0.00,,,0.00,,2013-04-23 13:32:00,
2013-04-23 09:42:00,44.0,34.0,30.29,ENE,60,1.0,2.0,67,0.00,,,0.00,,2013-04-23 13:42:00,
2013-04-23 09:52:00,45.0,34.0,30.29,ENE,68,0.0,4.0,66,0.00,,,0.00,,2013-04-23 13:52:00,
2013-04-23 10:02:00,47.0,35.0,30.29,ENE,63,0.0,3.0,63,0.00,,,0.00,,2013-04-23 14:02:00,
2013-04-23 10:11:00,47.0,35.0,30.29,ENE,63,0.0,3.0,63,0.00,,,0.00,,2013-04-23 14:11:00,
2013-04-23 10:22:00,48.0,34.0,30.29,NE,52,1.0,3.0,59,0.00,,,0.00,,2013-04-23 14:22:00,
2013-04-23 10:32:00,50.0,37.0,30.29,ENE,63,1.0,4.0,60,0.00,,,0.00,,2013-04-23 14:32:00,
2013-04-23 10:42:00,50.0,37.0,30.29,ENE,63,1.0,4.0,60,0.00,,,0.00,,2013-04-23 14:42:00,
2013-04-23 10:52:00,52.0,38.0,30.29,East,83,1.0,3.0,59,0.00,,,0.00,,2013-04-23 14:52:00,
2013-04-23 11:01:00,52.0,38.0,30.29,East,83,1.0,3.0,59,0.00,,,0.00,,2013-04-23 15:01:00,
2013-04-23 11:12:00,54.0,37.0,30.29,NE,50,0.0,4.0,53,0.00,,,0.00,,2013-04-23 15:12:00,
2013-04-23 11:22:00,55.0,38.0,30.29,ENE,70,0.0,4.0,53,0.00,,,0.00,,2013-04-23 15:22:00,
2013-04-23 11:32:00,57.0,38.0,30.29,ENE,57,2.0,5.0,49,0.00,,,0.00,,2013-04-23 15:32:00,
2013-04-23 11:43:00,57.0,38.0,30.29,ENE,57,2.0,5.0,49,0.00,,,0.00,,2013-04-23 15:43:00,
2013-04-23 11:53:00,60.0,40.0,30.29,NE,53,2.0,6.0,48,0.00,,,0.00,,2013-04-23 15:53:00,
2013-04-23 12:03:00,61.0,41.0,30.27,SE,134,2.0,6.0,47,0.00,,,0.00,,2013-04-23 16:03:00,
2013-04-23 12:12:00,61.0,41.0,30.27,SE,134,2.0,6.0,47,0.00,,,0.00,,2013-04-23 16:12:00,
2013-04-23 12:23:00,63.0,41.0,30.27,NNE,24,2.0,6.0,45,0.00,,,0.00,,2013-04-23 16:23:00,
2013-04-23 12:34:00,64.0,42.0,30.26,NE,46,1.0,4.0,45,0.00,,,0.00,,2013-04-23 16:34:00,
2013-04-23 12:43:00,64.0,42.0,30.26,NE,46,1.0,4.0,45,0.00,,,0.00,,2013-04-23 16:43:00,
2013-04-23 12:53:00,66.0,43.0,30.25,ENE,62,1.0,5.0,43,0.00,,,0.00,,2013-04-23 16:53:00,
2013-04-23 13:02:00,67.0,43.0,30.24,SE,131,1.0,6.0,42,0.00,,,0.00,,2013-04-23 17:02:00,
2013-04-23 13:12:00,67.0,43.0,30.24,SE,131,1.0,6.0,42,0.00,,,0.00,,2013-04-23 17:12:00,
2013-04-23 13:22:00,69.0,46.0,30.23,South,169,1.0,5.0,43,0.00,,,0.00,,2013-04-23 17:22:00,
2013-04-23 13:32:00,70.0,44.0,30.22,SSW,193,1.0,5.0,39,0.00,,,0.00,,2013-04-23 17:32:00,
2013-04-23 13:42:00,70.0,44.0,30.22,SSW,193,1.0,5.0,39,0.00,,,0.00,,2013-04-23 17:42:00,
2013-04-23 13:53:00,71.0,44.0,30.21,SSE,162,1.0,6.0,38,0.00,,,0.00,,2013-04-23 17:53:00,
2013-04-23 14:02:00,72.0,44.0,30.21,ESE,122,3.0,9.0,36,0.00,,,0.00,,2013-04-23 18:02:00,
2013-04-23 14:12:00,72.0,44.0,30.21,ESE,122,3.0,9.0,36,0.00,,,0.00,,2013-04-23 18:12:00,
2013-04-23 14:22:00,73.0,43.0,30.21,SSE,158,3.0,10.0,34,0.00,,,0.00,,2013-04-23 18:22:00,
2013-04-23 14:32:00,74.0,43.0,30.19,SE,130,4.0,8.0,33,0.00,,,0.00,,2013-04-23 18:32:00,
2013-04-23 14:42:00,74.0,43.0,30.19,SE,130,4.0,8.0,33,0.00,,,0.00,,2013-04-23 18:42:00,
2013-04-23 14:52:00,75.0,45.0,30.19,SE,126,1.0,9.0,34,0.00,,,0.00,,2013-04-23 18:52:00,
2013-04-23 15:02:00,75.0,43.0,30.18,ESE,116,1.0,7.0,32,0.00,,,0.00,,2013-04-23 19:02:00,
2013-04-23 15:11:00,75.0,43.0,30.18,ESE,116,1.0,7.0,32,0.00,,,0.00,,2013-04-23 19:11:00,
2013-04-23 15:22:00,76.0,46.0,30.17,ENE,72,0.0,6.0,34,0.00,,,0.00,,2013-04-23 19:22:00,
2013-04-23 15:32:00,76.0,42.0,30.17,WSW,246,7.0,10.0,30,0.00,,,0.00,,2013-04-23 19:32:00,
2013-04-23 15:42:00,76.0,42.0,30.17,WSW,246,7.0,10.0,30,0.00,,,0.00,,2013-04-23 19:42:00,
2013-04-23 15:52:00,74.0,41.0,30.17,NW,321,2.0,6.0,31,0.00,,,0.00,,2013-04-23 19:52:00,
2013-04-23 16:02:00,75.0,45.0,30.16,WSW,251,1.0,5.0,34,0.00,,,0.00,,2013-04-23 20:02:00,
2013-04-23 16:11:00,75.0,45.0,30.16,WSW,251,1.0,5.0,34,0.00,,,0.00,,2013-04-23 20:11:00,
2013-04-23 16:22:00,75.0,44.0,30.16,North,1,1.0,8.0,33,0.00,,,0.00,,2013-04-23 20:22:00,
2013-04-23 16:32:00,76.0,43.0,30.15,SSE,155,4.0,13.0,31,0.00,,,0.00,,2013-04-23 20:32:00,
2013-04-23 16:42:00,76.0,43.0,30.15,SSE,155,4.0,13.0,31,0.00,,,0.00,,2013-04-23 20:42:00,
2013-04-23 16:52:00,75.0,41.0,30.14,SSE,168,4.0,10.0,30,0.00,,,0.00,,2013-04-23 20:52:00,
2013-04-23 17:02:00,74.0,41.0,30.14,West,272,2.0,9.0,31,0.00,,,0.00,,2013-04-23 21:02:00,
2013-04-23 17:12:00,74.0,41.0,30.14,West,272,2.0,9.0,31,0.00,,,0.00,,2013-04-23 21:12:00,
2013-04-23 17:22:00,74.0,45.0,30.14,SSW,203,1.0,6.0,35,0.00,,,0.00,,2013-04-23 21:22:00,
2013-04-23 17:33:00,73.0,43.0,30.14,East,82,2.0,10.0,34,0.00,,,0.00,,2013-04-23 21:33:00,
2013-04-23 17:43:00,73.0,43.0,30.14,East,82,2.0,10.0,34,0.00,,,0.00,,2013-04-23 21:43:00,
2013-04-23 17:53:00,71.0,43.0,30.14,SSW,210,0.0,8.0,36,0.00,,,0.00,,2013-04-23 21:53:00,
2013-04-23 18:03:00,71.0,43.0,30.14,East,82,3.0,12.0,37,0.00,,,0.00,,2013-04-23 22:03:00,
2013-04-23 18:12:00,71.0,43.0,30.14,East,82,3.0,12.0,37,0.00,,,0.00,,2013-04-23 22:12:00,
2013-04-23 18:23:00,70.0,45.0,30.14,SW,219,0.0,8.0,40,0.00,,,0.00,,2013-04-23 22:23:00,
2013-04-23 18:33:00,69.0,42.0,30.14,SE,136,2.0,8.0,38,0.00,,,0.00,,2013-04-23 22:33:00,
2013-04-23 18:42:00,69.0,42.0,30.14,SE,136,2.0,8.0,38,0.00,,,0.00,,2013-04-23 22:42:00,
2013-04-23 18:52:00,69.0,42.0,30.14,West,270,5.0,11.0,38,0.00,,,0.00,,2013-04-23 22:52:00,
2013-04-23 19:03:00,69.0,42.0,30.14,South,171,5.0,11.0,37,0.00,,,0.00,,2013-04-23 23:03:00,
2013-04-23 19:12:00,69.0,42.0,30.14,South,171,5.0,11.0,37,0.00,,,0.00,,2013-04-23 23:12:00,
2013-04-23 19:22:00,68.0,43.0,30.14,SSW,200,3.0,13.0,40,0.00,,,0.00,,2013-04-23 23:22:00,
2013-04-23 19:32:00,66.0,42.0,30.14,SSW,200,2.0,7.0,41,0.00,,,0.00,,2013-04-23 23:32:00,
2013-04-23 19:42:00,66.0,42.0,30.14,SSW,200,2.0,7.0,41,0.00,,,0.00,,2013-04-23 23:42:00,
2013-04-23 19:52:00,65.0,43.0,30.14,South,188,2.0,8.0,44,0.00,,,0.00,,2013-04-23 23:52:00,
2013-04-23 20:02:00,64.0,42.0,30.14,SSE,165,1.0,5.0,44,0.00,,,0.00,,2013-04-24 00:02:00,
2013-04-23 20:11:00,64.0,42.0,30.14,SSE,165,1.0,5.0,44,0.00,,,0.00,,2013-04-24 00:11:00,
2013-04-23 20:22:00,63.0,42.0,30.15,South,186,0.0,7.0,46,0.00,,,0.00,,2013-04-24 00:22:00,
2013-04-23 20:32:00,62.0,42.0,30.15,South,174,0.0,3.0,48,0.00,,,0.00,,2013-04-24 00:32:00,
2013-04-23 20:42:00,62.0,42.0,30.15,South,174,0.0,3.0,48,0.00,,,0.00,,2013-04-24 00:42:00,
2013-04-23 20:52:00,61.0,42.0,30.16,SSE,148,3.0,7.0,49,0.00,,,0.00,,2013-04-24 00:52:00,
2013-04-23 21:02:00,60.0,42.0,30.17,South,175,0.0,6.0,51,0.00,,,0.00,,2013-04-24 01:02:00,
2013-04-23 21:11:00,60.0,42.0,30.17,South,175,0.0,6.0,51,0.00,,,0.00,,2013-04-24 01:11:00,
2013-04-23 21:21:00,59.0,42.0,30.17,West,270,1.0,5.0,53,0.00,,,0.00,,2013-04-24 01:21:00,
2013-04-23 21:32:00,58.0,42.0,30.17,SSE,151,2.0,12.0,55,0.00,,,0.00,,2013-04-24 01:32:00,
2013-04-23 21:42:00,58.0,42.0,30.17,SSE,151,2.0,12.0,55,0.00,,,0.00,,2013-04-24 01:42:00,
2013-04-23 21:52:00,58.0,43.0,30.18,SSE,163,0.0,3.0,57,0.00,,,0.00,,2013-04-24 01:52:00,
2013-04-23 22:02:00,57.0,43.0,30.19,ESE,114,0.0,5.0,59,0.00,,,0.00,,2013-04-24 02:02:00,
2013-04-23 22:19:00,57.0,43.0,30.19,ESE,114,0.0,5.0,59,0.00,,,0.00,,2013-04-24 02:19:00,
2013-04-23 22:30:00,56.0,42.0,30.20,SSW,200,0.0,2.0,60,0.00,,,0.00,,2013-04-24 02:30:00,
2013-04-23 22:40:00,56.0,43.0,30.20,SW,236,0.0,4.0,62,0.00,,,0.00,,2013-04-24 02:40:00,
2013-04-23 22:48:00,56.0,43.0,30.20,SW,236,0.0,4.0,62,0.00,,,0.00,,2013-04-24 02:48:00,
2013-04-23 23:01:00,55.0,43.0,30.20,West,266,1.0,9.0,63,0.00,,,0.00,,2013-04-24 03:01:00,
2013-04-23 23:18:00,55.0,43.0,30.20,WSW,251,0.0,4.0,64,0.00,,,0.00,,2013-04-24 03:18:00,
2013-04-23 23:31:00,55.0,44.0,30.20,West,273,1.0,5.0,66,0.00,,,0.00,,2013-04-24 03:31:00,
2013-04-23 23:51:00,54.0,43.0,30.20,SW,218,0.0,2.0,66,0.00,,,0.00,,2013-04-24 03:51:00,